Temp
75 86 90 85 72 73 69 68 74 72 73 77 77 74 75 77 73 68 81 79 79 81 85 81 74 74 75 76 75 75 76 76 76 76 76 76 76 76 76 76 76 76 77 77 77 76 76 75 74
88 84 86 84 69 65 69 72 70 75 77 76 75 76 74 73 79 78 80 80 79 82 85 82 73 74 75 75 75 75 76 76 76 76 76 76 76 76 76 75 75 76 77 77 77 76 75 73 72
85 85 81 76 71 66 69 72 75 76 78 76 74 78 76 73 76 77 79 79 74 79 86 85 72 73 74 74 75 75 75 75 75 75 76 76 76 76 75 75 75 76 76 76 76 75 73 72 71
85 84 81 70 67 70 71 76 77 76 78 79 78 73 77 77 76 77 79 79 78 71 83 78 71 73 74 74 74 74 74 74 74 74 75 76 76 76 75 74 75 76 76 76 75 74 72 70 70
87 83 71 68 68 71 75 77 77 75 74 74 75 74 73 76 78 78 78 78 78 71 79 80 70 72 74 74 74 74 74 73 74 74 74 75 75 75 74 74 75 75 75 74 73 72 70 70 70
78 80 68 66 68 72 75 78 76 76 77 75 73 74 75 76 76 77 77 77 78 72 70 75 72 73 72 73 73 72 72 73 73 74 74 74 74 74 74 74 74 74 73 72 71 70 70 70 69
76 74 69 68 67 69 73 77 75 76 76 76 76 70 76 75 76 76 77 77 76 74 69 72 70 71 71 72 71 71 72 72 72 73 73 73 72 72 73 73 73 72 72 71 70 70 70 69 69
80 76 68 70 67 68 75 75 78 77 77 76 78 72 73 74 76 76 76 72 73 72 67 69 67 68 66 66 67 71 72 71 71 72 72 71 71 72 72 72 72 71 71 70 70 69 69 69 68
81 70 67 69 68 72 76 74 79 78 77 75 76 77 76 74 76 75 74 69 66 70 70 70 67 67 65 65 67 71 71 70 71 71 70 70 78 77 74 74 70 70 69 69 69 69 68 67 67
74 70 71 76 77 73 77 76 78 74 78 74 74 75 73 74 74 74 73 69 63 64 64 67 65 66 65 64 64 67 68 69 71 72 76 80 77 76 78 73 69 69 69 69 68 67 67 71 77
74 69 76 74 77 78 76 76 77 74 72 79 75 76 73 72 72 72 73 70 65 67 63 67 66 66 66 64 64 63 65 64 66 68 73 75 75 75 77 76 75 75 71 76 74 73 80 79 79
69 75 76 77 78 76 74 78 74 76 76 76 77 76 73 71 70 72 71 68 65 65 67 65 70 67 66 65 63 63 63 64 64 66 71 71 72 72 76 78 78 76 79 77 77 79 79 78 78
69 75 76 78 77 76 77 74 75 76 79 77 74 73 70 69 71 70 70 68 63 64 65 65 65 65 65 63 62 61 61 63 64 65 70 73 74 71 77 78 78 79 81 79 79 79 77 77 77
75 74 76 77 76 77 71 76 70 78 80 73 72 72 71 69 70 70 68 65 62 65 65 63 63 65 67 66 64 61 61 63 63 64 72 73 73 73 76 75 78 79 80 81 80 78 78 78 78
74 68 72 74 75 74 75 70 67 80 75 72 73 73 71 67 69 67 68 66 63 65 66 63 62 65 68 67 63 63 61 62 62 64 72 72 72 72 74 76 76 79 80 79 79 78 79 79 79
68 69 63 74 74 73 72 64 77 78 74 74 74 74 72 71 70 69 66 66 68 64 62 64 63 63 67 68 62 64 61 61 63 65 72 71 70 70 71 73 75 77 78 78 78 78 77 77 78
65 60 63 68 74 71 69 68 74 74 74 74 75 74 72 73 72 72 70 69 67 64 64 61 62 61 61 61 61 63 61 61 61 65 74 74 72 72 72 73 73 76 77 76 77 76 77 75 76
59 60 65 64 70 70 69 68 76 76 73 72 75 75 73 72 72 73 70 70 70 70 62 62 61 61 62 61 60 62 62 61 61 62 68 73 76 74 74 75 73 76 76 76 76 74 75 75 75
67 63 63 69 70 65 66 69 74 79 75 74 75 74 74 73 76 74 71 71 70 67 66 60 59 60 60 58 59 59 60 61 60 62 66 70 75 74 74 75 74 76 76 75 73 72 71 72 74
63 60 62 68 68 65 67 68 74 78 76 77 77 75 74 74 73 71 70 70 68 69 67 62 59 60 59 63 61 62 64 63 62 63 65 70 73 74 72 70 73 74 75 73 71 70 71 73 72
61 59 61 61 65 67 64 63 69 76 76 76 75 78 78 76 73 71 69 69 69 66 63 68 65 60 60 61 63 62 61 58 60 61 65 68 74 74 73 69 74 73 73 71 70 70 69 69 69
56 65 63 61 59 55 64 53 67 71 73 76 78 75 76 76 76 74 71 70 69 69 68 69 67 64 62 62 61 61 58 60 61 65 66 71 71 72 73 70 73 71 71 71 71 71 69 71 68
59 66 61 62 59 59 59 56 64 70 67 73 78 80 76 78 76 74 72 72 72 71 68 66 68 65 61 62 62 60 59 61 64 64 66 69 66 69 69 69 71 69 69 69 69 67 65 69 68
66 61 60 61 59 48 57 58 60 67 70 73 77 80 79 78 77 76 74 72 72 72 70 66 65 65 61 61 62 61 61 60 60 60 60 61 65 67 67 70 70 70 69 67 62 65 68 69 69
62 57 48 45 45 45 60 56 60 70 74 75 76 79 79 77 77 75 73 71 72 70 69 68 63 63 64 61 62 63 66 65 59 58 61 64 66 66 66 67 68 69 68 66 66 67 70 69 68
56 58 51 38 42 51 58 51 62 73 76 77 78 79 80 78 77 76 75 72 72 70 70 69 67 64 62 62 63 64 67 68 62 62 63 63 65 68 65 63 70 72 68 68 72 71 71 70 69
56 51 62 51 51 48 55 60 68 73 74 77 78 79 79 81 78 77 76 74 72 71 69 68 69 70 67 65 65 64 67 68 69 68 65 65 68 66 63 63 65 69 71 70 71 71 70 70 69
61 65 49 52 40 39 51 52 58 65 70 73 74 76 78 79 79 77 77 74 74 72 71 69 71 71 71 69 69 69 69 70 71 71 70 70 72 72 70 69 68 69 70 71 70 70 71 70 71
56 54 57 58 53 44 43 52 67 68 70 71 75 77 78 78 78 78 78 77 76 75 73 70 70 71 71 70 70 70 70 70 71 71 72 72 72 72 72 71 71 71 71 72 72 72 72 72 71
63 58 58 48 47 51 50 53 70 69 72 72 75 78 80 79 79 79 78 77 75 74 73 72 71 72 72 71 70 69 69 70 69 69 70 71 71 72 72 72 71 71 72 73 72 71 71 71 70
MSLP
1013.14 1012.40 1011.85 1010.96 1009.73 1007.66 1006.41 1006.64 1007.37 1007.13 1007.17 1007.94 1008.39 1008.29 1007.97 1007.79 1007.56 1007.88 1009.49 1010.08 1010.52 1010.37 1010.04 1011.15 1011.71 1011.62 1011.69 1011.90 1011.69 1012.40 1012.92 1013.73 1014.20 1014.80 1015.19 1015.33 1014.64 1015.58 1016.42 1016.75 1017.08 1017.52 1017.95 1018.43 1018.79 1018.94 1019.38 1019.92 1020.18
1012.11 1012.05 1011.25 1009.60 1008.08 1006.15 1005.63 1006.81 1006.70 1007.00 1007.51 1008.29 1008.52 1008.42 1008.35 1007.77 1008.47 1008.81 1009.43 1010.26 1010.73 1010.42 1010.34 1010.94 1011.87 1011.97 1011.90 1011.99 1012.27 1012.37 1012.90 1013.47 1014.19 1014.73 1014.80 1015.58 1015.56 1015.32 1016.50 1017.09 1017.33 1017.86 1018.26 1018.77 1019.10 1019.54 1019.79 1020.46 1020.78
1011.97 1011.53 1009.71 1008.34 1007.01 1005.75 1005.60 1006.50 1006.55 1007.11 1007.76 1008.01 1008.09 1008.48 1008.32 1008.41 1009.35 1009.54 1010.28 1010.50 1010.94 1010.55 1010.28 1010.95 1011.96 1012.14 1012.34 1012.44 1012.49 1012.42 1013.00 1013.79 1014.47 1015.10 1015.20 1015.83 1015.92 1015.82 1016.61 1017.38 1017.66 1018.32 1018.66 1019.09 1019.61 1019.92 1020.38 1021.10 1021.38
1011.32 1010.60 1009.85 1008.01 1006.21 1006.32 1006.33 1006.34 1006.73 1007.04 1007.49 1008.01 1008.15 1008.07 1008.85 1009.58 1009.67 1010.22 1010.59 1010.69 1010.76 1011.01 1010.32 1010.74 1011.90 1012.10 1012.44 1012.65 1012.62 1012.68 1013.25 1013.68 1014.77 1015.25 1015.54 1016.02 1016.31 1016.40 1016.68 1017.66 1018.19 1018.51 1018.98 1019.44 1019.96 1020.52 1020.96 1021.62 1022.02
1010.68 1009.29 1007.68 1006.94 1006.32 1006.52 1006.73 1006.89 1007.08 1007.05 1007.45 1007.93 1008.48 1007.75 1008.49 1009.61 1010.21 1010.53 1010.57 1010.72 1010.65 1011.18 1010.79 1011.18 1011.84 1012.26 1012.52 1012.71 1012.98 1012.99 1013.51 1014.16 1014.67 1015.11 1015.63 1016.17 1016.64 1016.79 1017.00 1017.86 1018.29 1018.65 1019.47 1019.99 1020.51 1021.14 1021.42 1021.99 1022.29
1009.32 1008.52 1006.90 1005.80 1005.87 1006.50 1006.61 1007.01 1007.09 1007.13 1007.25 1007.87 1008.29 1008.10 1008.46 1010.02 1010.22 1010.58 1010.70 1010.70 1010.74 1011.30 1011.41 1011.45 1011.69 1011.94 1012.29 1012.67 1012.87 1013.24 1013.93 1014.45 1014.79 1015.34 1015.92 1016.24 1016.94 1017.24 1017.22 1018.01 1018.46 1019.03 1019.73 1020.57 1021.12 1021.65 1021.86 1022.29 1022.61
1008.43 1007.48 1006.06 1005.86 1005.88 1006.25 1006.44 1007.18 1006.97 1006.80 1006.99 1007.24 1008.22 1008.06 1008.41 1009.58 1010.40 1010.64 1010.56 1010.65 1010.86 1011.21 1011.58 1011.69 1012.11 1012.25 1012.98 1013.04 1012.57 1012.71 1013.72 1014.41 1014.94 1015.64 1016.19 1016.78 1017.32 1017.80 1017.56 1018.09 1018.77 1019.38 1020.11 1021.11 1021.53 1021.94 1022.15 1022.58 1023.06
1008.47 1007.45 1006.08 1005.99 1005.74 1005.56 1006.60 1006.96 1006.99 1006.96 1006.64 1008.15 1008.34 1007.56 1007.78 1009.45 1010.23 1010.45 1010.53 1011.01 1011.16 1011.44 1011.91 1011.79 1012.36 1013.22 1013.27 1014.22 1013.85 1013.37 1013.49 1014.30 1014.95 1015.88 1016.43 1017.24 1017.44 1018.15 1018.03 1018.08 1019.16 1019.72 1020.51 1021.34 1021.98 1022.23 1022.44 1022.99 1023.26
1008.94 1007.08 1005.40 1005.28 1005.63 1005.59 1006.64 1006.50 1006.68 1007.32 1007.19 1007.81 1008.14 1007.94 1008.62 1009.56 1009.98 1010.19 1010.39 1010.90 1011.52 1011.55 1011.85 1011.88 1012.44 1013.16 1013.73 1014.11 1014.14 1014.16 1014.22 1014.89 1014.84 1016.04 1016.87 1017.39 1017.80 1018.41 1018.49 1018.23 1019.37 1020.23 1020.88 1021.67 1022.28 1022.41 1022.67 1023.38 1023.76
1008.05 1006.35 1005.12 1005.45 1005.51 1005.79 1005.97 1006.17 1006.12 1006.79 1006.22 1007.05 1007.77 1008.47 1009.13 1009.35 1009.70 1009.84 1009.99 1010.73 1011.55 1011.98 1012.21 1012.38 1012.61 1013.16 1013.90 1014.01 1014.50 1014.88 1014.91 1015.37 1015.42 1016.08 1016.74 1017.00 1017.93 1018.54 1018.35 1018.84 1019.72 1020.48 1021.36 1022.20 1022.62 1022.72 1022.98 1023.12 1023.60
1007.29 1005.96 1005.38 1005.82 1006.09 1006.17 1005.93 1005.84 1006.28 1006.14 1005.78 1005.73 1006.62 1007.37 1008.65 1009.09 1009.59 1009.96 1010.03 1010.58 1011.42 1011.92 1012.61 1012.88 1012.93 1013.02 1013.33 1013.79 1014.45 1014.98 1015.04 1015.63 1016.50 1016.44 1016.82 1017.08 1017.96 1018.47 1018.71 1019.03 1020.11 1020.72 1021.69 1022.17 1022.57 1023.01 1022.10 1022.28 1022.86
1006.96 1006.40 1005.95 1005.64 1005.90 1006.24 1005.96 1005.72 1005.81 1005.82 1005.73 1006.61 1007.00 1007.59 1008.45 1008.91 1009.42 1009.76 1010.18 1010.76 1011.47 1012.04 1012.32 1013.04 1012.97 1013.24 1013.53 1013.63 1014.33 1015.04 1015.81 1016.53 1017.13 1017.13 1016.88 1017.47 1018.21 1018.62 1018.49 1018.57 1019.49 1020.40 1020.97 1021.60 1021.85 1021.89 1021.89 1022.41 1022.84
1006.78 1005.91 1006.00 1005.72 1005.91 1006.20 1006.05 1005.74 1005.46 1005.17 1005.85 1006.81 1007.52 1008.03 1008.56 1009.06 1009.55 1010.22 1010.56 1011.04 1011.71 1012.14 1012.49 1012.94 1013.29 1013.60 1013.67 1014.08 1014.57 1015.23 1015.55 1015.95 1016.90 1017.24 1017.09 1017.83 1018.43 1018.51 1018.48 1018.55 1019.34 1019.79 1020.34 1021.00 1021.14 1021.64 1022.42 1022.66 1023.13
1005.81 1006.07 1005.59 1005.47 1005.47 1005.64 1005.86 1005.04 1005.83 1004.68 1005.30 1006.63 1007.38 1007.82 1008.38 1009.06 1009.54 1010.08 1010.73 1011.24 1011.70 1012.12 1012.52 1013.16 1013.59 1013.69 1013.78 1014.25 1014.67 1015.30 1015.47 1015.50 1016.92 1017.38 1017.30 1018.28 1018.39 1018.35 1018.59 1018.74 1019.25 1019.86 1020.37 1020.70 1020.92 1021.47 1022.21 1022.32 1022.87
1006.11 1005.96 1005.42 1005.15 1005.02 1005.02 1005.43 1004.67 1004.70 1004.43 1005.54 1006.21 1006.71 1007.24 1008.05 1009.04 1009.58 1010.24 1010.66 1011.13 1011.64 1011.96 1012.38 1013.19 1013.53 1013.66 1013.91 1014.43 1014.86 1015.27 1015.57 1015.91 1016.83 1017.75 1017.53 1018.25 1018.39 1018.29 1018.85 1018.85 1019.31 1019.76 1020.13 1020.71 1021.03 1021.34 1021.98 1022.20 1022.68
1006.03 1005.60 1004.51 1003.73 1004.26 1004.86 1005.36 1003.29 1002.90 1004.23 1005.02 1005.35 1006.12 1006.64 1007.39 1008.21 1009.05 1009.84 1010.79 1011.15 1011.34 1011.89 1012.28 1012.90 1013.48 1013.86 1014.04 1014.34 1014.90 1015.27 1016.05 1016.59 1017.31 1017.58 1017.72 1018.14 1018.35 1018.69 1018.96 1019.28 1019.51 1020.01 1020.48 1020.80 1021.16 1021.29 1021.77 1022.25 1022.53
1005.37 1004.01 1003.69 1003.40 1003.94 1004.26 1004.62 1002.82 1003.25 1004.24 1004.41 1004.45 1005.09 1006.04 1006.75 1007.36 1008.26 1009.06 1009.98 1010.68 1011.14 1011.72 1012.11 1012.76 1013.33 1013.88 1014.44 1015.03 1015.09 1015.64 1016.22 1016.88 1017.38 1017.27 1017.19 1017.87 1018.33 1018.64 1019.04 1019.38 1019.91 1020.13 1020.41 1020.79 1020.94 1021.40 1021.68 1022.20 1022.39
1003.85 1003.83 1003.41 1003.21 1003.51 1003.94 1003.48 1002.95 1002.63 1003.25 1003.82 1004.01 1004.14 1005.07 1005.90 1006.58 1007.21 1008.32 1009.44 1010.14 1010.63 1011.13 1012.17 1012.58 1013.18 1013.68 1014.30 1014.94 1015.43 1015.96 1016.41 1016.98 1017.49 1017.84 1017.65 1017.75 1017.79 1018.49 1019.29 1019.59 1019.98 1020.06 1020.37 1020.67 1020.91 1021.50 1021.90 1022.16 1022.41
1003.80 1003.79 1003.27 1002.77 1003.47 1003.68 1003.17 1002.57 1001.90 1001.76 1002.77 1003.05 1003.46 1004.05 1004.91 1005.73 1006.53 1007.74 1008.83 1009.54 1010.17 1010.92 1011.59 1012.46 1012.79 1013.38 1014.05 1014.69 1015.28 1015.92 1016.20 1016.86 1017.60 1017.84 1018.07 1018.04 1018.10 1019.17 1019.46 1019.45 1019.69 1019.78 1020.02 1020.38 1021.08 1021.61 1022.12 1022.36 1022.83
1004.49 1004.01 1003.43 1003.24 1003.86 1003.80 1002.73 1001.99 1001.60 1001.21 1001.60 1001.97 1002.49 1003.04 1003.86 1004.83 1005.98 1007.08 1008.19 1009.01 1009.78 1010.33 1011.15 1012.07 1012.71 1013.18 1013.66 1014.14 1014.79 1015.39 1016.00 1016.62 1017.07 1017.64 1018.05 1018.32 1018.22 1018.71 1019.27 1019.44 1019.31 1019.66 1020.03 1020.63 1021.13 1021.60 1021.91 1022.07 1022.79
1004.21 1003.92 1003.66 1003.67 1003.80 1003.60 1002.92 1001.92 1001.12 1000.60 1001.18 1001.51 1002.08 1002.24 1002.83 1003.65 1004.80 1006.11 1007.30 1008.19 1009.20 1009.97 1010.89 1011.22 1011.96 1012.86 1013.26 1013.85 1014.56 1015.40 1016.26 1017.04 1017.27 1017.38 1017.47 1017.88 1017.88 1018.24 1018.76 1019.34 1019.16 1019.70 1020.07 1020.49 1020.89 1021.55 1022.10 1022.09 1022.83
1003.63 1003.94 1004.17 1004.19 1004.02 1002.51 1002.77 1000.88 999.94 1000.02 999.97 1000.02 1000.48 1001.49 1002.01 1002.77 1003.84 1005.10 1006.30 1007.38 1008.27 1009.08 1010.08 1010.56 1011.27 1012.14 1012.88 1013.21 1013.90 1014.27 1014.94 1015.54 1016.02 1016.70 1017.05 1016.88 1017.58 1018.04 1018.18 1018.76 1019.05 1019.57 1020.06 1020.27 1020.66 1021.36 1021.74 1021.89 1022.06
1003.80 1003.98 1004.35 1004.24 1003.82 1003.21 1002.42 1001.38 999.70 999.49 999.38 998.99 999.23 999.83 1001.16 1001.93 1003.02 1004.08 1005.43 1006.55 1007.42 1008.44 1009.49 1010.12 1010.72 1011.54 1012.36 1012.86 1013.30 1013.88 1014.48 1014.96 1015.68 1016.47 1016.91 1017.08 1017.40 1017.35 1018.04 1018.50 1018.88 1019.32 1019.73 1020.22 1020.58 1021.07 1021.65 1021.70 1021.51
1004.32 1004.47 1004.44 1004.33 1003.76 1002.69 1002.00 1001.00 999.06 998.39 998.30 998.34 998.52 998.98 999.91 1001.09 1002.26 1003.38 1004.83 1006.18 1006.94 1007.82 1008.71 1009.69 1010.29 1010.92 1011.85 1012.31 1012.90 1013.33 1013.94 1014.44 1015.17 1015.99 1016.57 1016.97 1017.06 1017.43 1017.68 1017.78 1018.35 1018.59 1019.11 1019.43 1019.79 1020.32 1021.09 1021.15 1021.28
1004.26 1004.03 1003.53 1003.50 1002.87 1001.76 1001.22 1000.59 999.27 998.38 998.27 998.20 998.40 998.59 999.50 1000.54 1001.48 1002.54 1003.83 1005.19 1006.14 1006.97 1007.93 1008.94 1009.90 1010.44 1011.11 1011.84 1012.23 1012.67 1012.88 1013.62 1014.33 1014.91 1015.52 1015.91 1016.12 1016.47 1016.81 1017.29 1017.79 1018.04 1018.08 1018.44 1019.15 1020.33 1020.47 1020.26 1020.38
1003.23 1002.95 1001.99 1001.93 1001.68 1000.97 1001.48 1000.02 998.53 998.29 998.22 998.18 998.23 998.42 998.98 999.87 1000.72 1001.61 1002.70 1004.37 1005.30 1006.30 1007.17 1007.99 1008.87 1009.68 1010.48 1011.11 1011.66 1012.11 1012.23 1012.75 1013.45 1013.87 1014.47 1014.96 1015.28 1015.59 1016.04 1016.69 1016.81 1016.93 1017.28 1017.68 1018.20 1018.96 1019.43 1019.54 1019.40
1002.87 1002.58 1002.72 1002.42 1002.63 1001.55 1000.30 999.93 999.03 998.27 997.81 997.64 997.50 997.81 998.10 998.64 999.77 1000.68 1001.68 1003.22 1004.56 1005.41 1006.30 1007.18 1007.81 1008.40 1009.41 1010.16 1010.88 1011.38 1011.58 1011.89 1012.25 1012.81 1013.71 1014.15 1014.55 1015.12 1015.34 1015.78 1016.38 1016.77 1016.87 1017.26 1017.43 1017.97 1018.17 1018.69 1018.77
1002.21 1001.97 1002.66 1002.65 1001.87 1001.17 1000.07 999.64 998.41 997.88 997.48 997.40 997.42 997.46 997.71 998.13 999.00 1000.05 1000.92 1001.99 1003.36 1004.69 1005.53 1006.49 1007.07 1007.56 1008.14 1008.99 1009.63 1010.04 1010.43 1010.86 1011.28 1011.89 1012.32 1012.76 1013.15 1013.76 1014.24 1014.83 1015.45 1016.06 1016.20 1016.44 1016.77 1017.05 1017.24 1017.50 1017.47
1002.15 1001.90 1001.77 1001.51 1001.76 1000.85 1000.03 999.02 998.70 998.10 997.93 997.65 997.44 997.50 997.57 998.05 998.65 999.51 1000.29 1001.41 1002.34 1003.58 1004.68 1005.46 1006.02 1006.50 1007.14 1007.87 1008.41 1008.92 1009.38 1009.98 1010.56 1010.93 1011.31 1011.67 1012.21 1012.54 1013.03 1013.62 1014.31 1014.75 1015.09 1015.42 1015.71 1015.75 1015.91 1016.00 1016.10
1001.38 1001.43 1001.61 1001.45 1001.42 1001.47 1000.56 999.17 998.85 998.74 998.45 998.31 997.91 997.63 997.59 997.93 998.27 998.93 999.78 1000.72 1001.73 1002.41 1003.41 1004.19 1005.12 1005.48 1005.96 1006.79 1007.49 1007.98 1008.69 1009.22 1009.70 1010.03 1010.32 1010.94 1011.08 1011.49 1011.71 1012.40 1013.02 1013.39 1013.74 1014.08 1014.32 1014.47 1014.58 1014.83 1014.93
Wind_Speed
10 9 4 6 8 7 3 5 3 4 3 2 1 5 9 10 7 10 5 4 2 8 13 16 7 12 16 21 25 26 26 24 23 22 21 20 24 24 21 21 21 21 21 22 21 22 21 21 21
8 6 6 2 8 8 6 2 5 1 2 1 5 8 9 8 3 4 1 4 2 10 14 15 10 10 14 20 23 26 26 25 24 23 24 22 23 26 23 21 22 21 21 22 22 22 22 21 18
7 6 6 5 6 8 3 4 2 1 2 5 3 4 6 1 1 2 3 3 5 9 16 16 12 12 14 19 23 24 25 24 23 22 23 22 23 26 25 22 23 21 21 23 21 22 22 19 17
7 6 5 9 8 2 6 2 2 5 3 6 6 8 3 0 1 3 4 4 7 4 15 14 13 16 14 18 20 23 24 24 24 23 24 23 23 25 26 24 23 22 21 23 23 21 21 18 16
6 4 7 10 7 3 6 5 6 6 2 2 4 6 4 3 2 1 3 4 7 4 11 12 13 16 18 17 19 21 22 23 24 24 25 24 24 24 26 23 23 23 21 21 22 21 20 18 17
7 5 8 11 8 5 4 4 5 8 5 3 7 9 3 2 3 0 5 6 6 5 3 9 15 19 18 20 20 21 22 22 24 23 24 25 23 24 24 21 19 21 22 20 20 19 19 18 18
14 8 10 6 6 6 2 3 7 7 8 7 2 7 2 4 1 3 4 6 6 4 4 2 3 5 7 16 20 24 22 23 22 22 23 23 21 19 23 22 21 22 22 20 19 18 19 18 18
9 7 7 10 9 7 5 3 5 8 8 4 3 6 5 2 1 3 1 2 4 5 5 7 12 10 3 6 8 15 24 23 22 20 21 20 21 19 20 22 21 22 21 19 19 18 19 18 16
7 9 10 12 11 8 5 8 6 2 9 8 7 8 3 1 2 3 3 1 2 3 9 9 8 9 9 8 2 12 19 19 22 19 19 16 15 17 20 20 20 21 20 20 19 19 18 16 15
13 12 12 5 9 6 6 7 10 6 10 11 10 8 5 4 4 5 6 3 2 4 6 10 11 13 7 7 4 3 8 9 12 15 21 16 17 14 14 17 20 21 19 18 18 18 20 18 12
14 17 9 7 9 8 9 10 4 8 13 9 9 7 8 6 5 5 6 4 5 7 7 8 9 8 14 9 7 3 4 4 4 11 14 13 10 9 11 12 12 14 17 12 14 15 12 13 10
14 18 11 11 6 8 10 8 8 12 13 4 2 5 9 8 6 5 5 3 4 7 12 8 10 9 9 6 7 6 6 9 9 14 16 10 8 10 11 10 14 13 12 15 13 9 10 11 10
19 16 11 13 11 11 10 13 13 14 10 4 4 6 9 7 6 3 4 1 3 10 7 7 7 8 8 8 6 7 7 9 10 11 13 10 11 10 11 13 12 12 12 13 12 9 9 10 10
7 19 15 13 13 11 12 16 4 7 4 9 9 9 8 8 6 4 5 4 5 9 11 9 9 10 11 10 11 7 4 13 9 11 10 13 10 10 11 11 12 11 11 10 10 11 10 10 10
11 12 14 15 14 15 10 16 15 14 7 10 12 10 9 9 7 7 5 6 6 8 11 11 8 9 12 12 10 8 5 7 9 10 12 12 11 10 11 10 10 11 10 12 10 11 10 9 8
15 14 17 15 12 7 11 18 6 4 9 10 12 11 11 11 9 8 8 8 8 6 9 12 11 12 11 12 5 7 6 6 6 12 11 12 12 11 8 8 9 10 9 9 9 9 9 9 8
13 15 18 12 11 6 13 11 4 4 8 10 11 12 11 10 10 10 10 10 9 8 9 10 12 13 11 9 5 8 10 7 4 3 10 14 13 10 8 8 7 11 9 9 9 8 9 8 8
15 16 14 14 10 12 13 16 11 8 10 10 10 12 13 12 12 11 11 11 11 10 8 8 10 13 12 8 7 6 8 6 3 3 7 12 12 10 10 9 10 10 10 9 9 9 7 8 8
13 12 15 10 5 6 13 16 14 6 9 10 11 13 14 14 11 11 12 12 12 11 10 8 10 12 10 8 9 8 8 9 6 4 6 11 13 16 14 9 11 11 10 10 10 8 10 7 6
18 15 14 8 5 8 13 16 14 12 7 8 11 13 15 14 14 13 14 13 12 12 12 11 7 13 9 11 10 8 9 7 9 6 6 10 14 15 12 9 11 12 9 11 11 8 7 8 9
20 20 15 14 2 10 9 15 18 14 7 7 9 11 13 16 17 16 16 15 13 13 12 12 14 14 13 12 10 9 6 4 5 9 10 11 14 14 14 10 12 12 9 9 9 10 11 7 7
20 19 16 11 11 10 3 13 16 9 16 12 11 12 13 17 17 16 17 16 15 13 13 13 13 15 14 16 14 17 15 14 10 11 9 10 14 14 14 12 13 12 9 10 10 9 8 9 9
16 7 12 15 13 12 14 10 13 5 13 13 12 12 14 15 18 18 18 16 15 14 13 12 13 15 12 15 14 14 15 11 10 9 15 15 10 13 12 11 13 12 8 8 7 7 9 9 11
8 7 7 8 10 13 14 13 8 11 9 4 5 7 8 14 17 18 17 15 15 14 14 14 16 15 14 15 16 16 17 14 11 11 10 10 10 10 13 14 15 13 12 9 4 5 12 12 12
15 13 8 9 9 10 4 11 14 11 12 11 10 11 7 11 16 18 20 18 17 18 17 15 16 17 17 16 17 20 21 21 16 14 13 14 12 10 13 14 14 12 10 8 9 16 16 14 13
18 19 8 9 10 9 9 9 7 3 5 6 6 7 5 10 14 19 21 19 19 19 19 19 20 19 18 19 18 16 20 14 13 14 12 11 11 13 13 11 14 16 12 12 15 12 12 13 12
13 20 16 9 1 5 7 7 11 11 10 11 9 8 12 11 14 19 21 21 19 20 21 20 20 21 21 21 17 17 17 20 18 22 15 13 14 11 10 11 12 15 17 15 16 12 15 14 14
10 10 9 10 13 12 9 8 7 4 10 2 4 5 4 6 12 15 19 21 19 19 20 21 20 21 20 22 21 19 21 21 20 19 21 21 19 19 18 18 17 18 18 18 18 15 17 17 14
15 13 9 7 13 11 10 6 5 9 6 4 3 7 5 2 10 13 15 17 18 18 19 20 21 22 21 21 21 21 20 21 20 19 20 21 20 20 21 20 20 21 21 20 19 19 19 19 18
16 16 19 11 10 7 8 8 9 6 10 6 11 11 8 2 4 10 13 15 17 19 20 21 20 21 21 20 20 21 20 21 21 21 22 19 21 22 22 22 21 22 21 20 20 20 19 19 19
Wind_Direction
180 191 217 226 235 245 179 142 343 246 224 49 319 273 322 319 300 330 52 174 354 205 185 173 177 168 164 161 149 153 151 152 148 147 142 140 132 133 130 126 123 122 121 123 118 116 114 110 105
177 181 218 247 254 223 139 139 222 337 337 311 250 254 258 278 306 302 231 161 234 222 189 189 167 178 170 161 158 153 152 152 151 150 143 144 135 129 128 127 123 125 126 126 124 122 117 114 105
177 228 249 243 250 260 271 175 234 243 258 239 252 255 308 282 196 337 11 293 161 250 189 189 172 186 174 169 159 153 152 151 149 148 140 141 136 131 128 128 125 128 128 130 127 121 114 108 103
186 188 200 244 222 199 270 210 250 271 191 223 271 263 186 322 271 23 341 282 198 248 206 166 170 182 180 172 161 154 153 148 150 147 144 142 138 134 131 133 134 132 129 127 124 121 118 113 110
216 239 232 236 232 254 249 273 273 260 331 229 215 268 258 164 202 236 285 277 233 201 224 195 183 191 173 171 166 155 149 149 148 147 145 145 144 138 135 141 140 128 128 124 125 128 122 119 116
204 271 230 228 201 223 247 257 253 254 249 198 245 285 292 93 233 293 258 261 237 231 220 220 199 184 177 178 170 155 149 148 146 147 147 145 145 143 138 138 131 126 124 126 127 129 125 122 121
253 231 254 257 234 219 163 179 233 271 271 267 210 274 77 198 75 290 277 253 234 210 104 235 88 243 212 212 180 169 147 146 146 148 148 146 141 142 134 128 125 124 124 132 133 130 127 127 125
256 259 236 219 208 219 160 219 293 271 302 82 259 260 284 100 11 290 238 258 248 193 140 155 143 151 209 299 265 160 157 147 145 149 143 144 139 139 131 124 131 129 131 134 135 133 128 126 118
247 241 239 221 216 210 185 254 149 309 263 211 215 270 351 162 250 235 221 186 115 195 155 158 131 138 145 165 280 187 150 148 138 144 139 138 145 146 144 133 136 136 135 138 139 132 123 119 120
224 236 246 241 215 251 262 286 305 245 241 232 235 231 228 234 239 257 259 220 150 165 140 149 158 160 161 137 122 175 145 156 144 147 155 160 153 159 146 131 137 137 136 139 137 129 130 153 141
221 249 226 212 231 277 287 284 230 253 266 281 247 229 198 214 221 244 257 260 180 175 165 173 163 165 185 164 158 202 129 124 163 164 167 145 148 141 148 136 141 142 148 149 145 144 162 141 144
245 238 243 226 237 242 262 298 261 252 271 325 231 196 180 202 223 244 276 294 212 185 153 141 164 162 174 160 168 181 164 176 180 187 164 151 144 157 148 144 149 153 165 157 157 169 136 146 146
232 250 232 234 237 249 273 262 275 269 255 226 195 185 185 197 209 204 257 282 220 174 166 156 152 175 160 144 150 169 174 158 172 174 160 147 165 154 155 146 150 161 166 170 164 150 155 157 154
212 238 243 236 237 245 249 267 254 265 244 194 200 194 187 202 205 200 226 188 219 183 168 162 169 167 163 154 159 149 148 144 154 173 165 163 162 150 159 148 155 162 166 169 161 157 163 162 157
237 243 226 229 236 247 252 256 234 267 187 208 208 197 186 201 207 221 224 205 209 202 168 163 158 170 161 157 153 147 111 121 146 187 160 162 157 144 161 156 156 163 159 164 165 156 167 162 166
229 235 252 227 215 214 222 262 202 154 188 212 214 204 199 199 200 190 210 219 185 177 178 169 160 174 165 161 152 139 135 127 149 180 160 160 149 146 149 152 158 159 155 161 162 162 164 169 172
215 240 222 224 204 171 216 257 130 185 217 238 211 214 204 203 200 193 196 203 205 191 182 170 166 166 158 139 117 140 141 152 136 177 160 170 155 148 157 159 163 164 163 172 163 167 174 166 169
224 224 243 239 163 212 219 254 254 205 237 239 220 215 210 208 198 189 188 187 199 190 183 180 168 170 171 145 126 132 147 155 149 186 169 179 159 173 195 181 164 176 175 175 167 171 177 177 174
264 250 250 235 172 220 241 256 270 235 220 232 224 215 217 211 189 180 187 186 188 188 189 180 171 167 160 152 161 159 163 167 179 194 201 169 165 191 198 186 178 190 186 182 172 173 180 174 179
233 242 241 258 237 232 254 255 263 274 247 242 231 219 220 204 194 187 188 191 196 195 194 172 179 166 169 167 175 171 166 164 179 197 190 199 191 185 189 199 185 194 189 188 177 174 195 183 187
228 235 242 260 207 234 266 258 250 242 227 235 227 241 215 209 197 192 195 194 191 189 197 206 179 177 174 177 169 165 150 115 168 192 207 199 200 199 192 199 192 190 197 192 183 186 188 199 208
230 225 249 254 262 261 198 266 259 247 266 228 241 214 218 209 202 192 194 194 194 194 190 200 183 186 187 178 174 170 177 184 188 190 209 213 213 211 202 196 199 189 195 197 189 198 213 226 211
248 242 232 241 252 269 253 252 257 259 260 253 233 210 210 209 206 190 194 197 192 185 185 200 189 184 178 181 176 179 186 193 179 193 206 213 203 195 197 190 198 187 183 197 192 200 215 224 244
237 190 210 223 238 245 244 242 255 252 251 281 223 229 205 206 199 192 187 191 195 188 186 186 194 194 181 182 185 181 182 181 180 178 192 198 191 189 195 193 203 188 186 180 171 251 228 223 229
214 204 217 220 205 239 183 233 241 286 269 267 273 276 169 195 195 188 184 190 192 190 189 184 196 195 191 190 191 193 195 186 184 177 190 192 195 192 193 197 203 204 197 184 194 227 235 227 223
198 196 209 214 217 232 152 241 250 254 314 274 262 270 227 199 196 194 187 191 193 191 191 189 193 195 194 194 195 196 201 195 194 190 194 201 200 202 186 196 219 225 213 207 213 224 233 238 232
201 227 248 263 260 273 199 230 265 235 253 248 260 277 252 217 198 197 186 188 196 194 195 196 194 195 193 196 195 199 204 202 202 200 200 204 204 201 192 188 208 220 215 210 215 224 232 236 236
213 169 185 222 233 230 226 243 257 278 296 273 312 330 325 220 189 196 191 188 193 197 194 196 200 201 196 197 200 203 205 208 208 204 206 211 209 210 204 205 208 217 223 223 223 230 234 239 239
204 221 235 248 225 245 246 228 193 247 352 327 3 348 353 219 195 191 194 192 194 193 199 198 202 200 201 201 201 205 206 209 211 214 213 213 214 211 216 215 218 224 226 228 230 236 240 242 240
213 226 222 229 194 238 269 247 150 332 308 317 313 326 324 30 184 190 186 187 196 198 199 201 203 205 204 200 205 207 208 207 210 216 216 215 216 213 215 215 222 228 230 233 236 241 241 244 242